STARLINK-34748 (64848 NORAD) Tracking and Keplerian Element Data

This shows tracking and keplerian element data for the satellite.

Feedback or suggestion? Click here.




ElementValue
Catalog64848
NameSTARLINK-34748
Epoch Orbit2345
Epoch Day354.16133572
Epoch Year2025
RAAN207.1609
Inclination97.6009
Eccentricity0.000112
Argument of Perigee90.9518
Mean Anonmoly269.1837
Mean Motion15.05653332
Decay Rate3.009E-05
L11 64848U 25152G 25354.16133572 .00003009 00000+0 21261-3 0 9998
L22 64848 97.6009 207.1609 0001120 90.9518 269.1837 15.05653332 23457



Live tracking and technical data element details for STARLINK-34748 (NORAD 64848). STARLINK-34748 can be tracked NOW for your location showing map with azimuth and elevation plus other details from your city location.







IsCatalogInMostPopularTable: catalog: 64848, numindb: 5
Update: records affected: 1



GetName: 64848 STARLINK-34748

Hit Count: updated at: Wed, 15 Apr 2026 01:31:30 GMT